"Pseudo-MPEC" for C3LEFL2

Created 2020 Oct 19 14:07:10 UT using Find_Orb

Click here for an explanation of pseudo-MPECs

 
 Astrometry: 
     C3LEFL2  C2020 10 17.27920401 30 48.65 -04 04 50.6    ~AH7b 21.30GVNEOCPG96
     C3LEFL2  C2020 10 17.28438901 30 45.64 -04 04 06.3    ~AH7b 21.09GVNEOCPG96
     C3LEFL2  C2020 10 17.28957601 30 42.59 -04 03 20.1    ~AH7b 21.32GVNEOCPG96
     C3LEFL2  C2020 10 17.29475601 30 39.59 -04 02 35.3    ~AH7b 21.13GVNEOCPG96
     C3LEFL2 KC2020 10 17.37898001 29 50.81 -03 50 24.8    ~AH9M 21.40GVNEOCPV06
     C3LEFL2 KC2020 10 17.38075801 29 49.79 -03 50 09.4    ~AH9M 21.10GVNEOCPV06
     C3LEFL2 KC2020 10 17.38253701 29 48.74 -03 49 53.9    ~AH9M 21.33GVNEOCPV06
     C3LEFL2 KC2020 10 17.38431701 29 47.74 -03 49 38.2    ~AH9M 21.42GVNEOCPV06
     C3LEFL2 KC2020 10 18.24131601 21 59.29 -01 42 57.0    ~AI67 20.94GVNEOCPV06
     C3LEFL2 KC2020 10 18.24309301 21 58.22 -01 42 40.7    ~AI67 21.01GVNEOCPV06
     C3LEFL2 KC2020 10 18.24487101 21 57.16 -01 42 24.6    ~AI67 21.01GVNEOCPV06
     C3LEFL2 KC2020 10 19.25959701 12 17.84 +00 53 35.5    ~AJ6b 21.14GVNEOCPV06
     C3LEFL2 KC2020 10 19.26137401 12 16.73 +00 53 51.8    ~AJ6b 21.53GVNEOCPV06
     C3LEFL2 KC2020 10 19.26315201 12 15.63 +00 54 09.0    ~AJ6b 21.30GVNEOCPV06

Station data:
(G96) Mt. Lemmon Survey  (N32.442754 W110.788720)  US/Arizona.  Observers T.
   A. Pruyne, B. M. Africano, E. J. Christensen, G. A. Farneth, D. C. Fuls,
   A. R. Gibbs, A. D. Grauer, H. Gröller, J. A. Johnson, R. A. Kowalski, S.
   M. Larson, G. J. Leonard, D. Rankin, R. L. Seaman, F. C. Shelly. 1.5-m
   reflector + 10K CCD.
(V06) Catalina Sky Survey-Kuiper  (N32.416847 W110.732550)  US/Arizona.
   Observers T. A. Pruyne, B. M. Africano, E. J. Christensen, G. A. Farneth,
   D. C. Fuls, A. R. Gibbs, A. D. Grauer, H. Gröller, J. A. Johnson, R. A.
   Kowalski, S. M. Larson, G. J. Leonard, D. Rankin, R. L. Seaman, F. C.
   Shelly. 1.55-m reflector + CCD.

Orbital elements:  C3LEFL2
   Perihelion 2021 Feb 4.233116 +/- 0.253 TT =  5:35:41 (JD 2459249.733116)
Epoch 2020 Oct 19.0 TT = JDT 2459141.5   Earth MOID: 0.0134   AutoNEOCP
M 261.18961117 +/- 0.35             (J2000 ecliptic)
n   0.91294044 +/- 0.00116          Peri.  106.88851 +/- 0.29
a   1.05238444 +/- 0.00089          Node    26.91603 +/- 0.0055
e   0.0894768 +/- 0.000391          Incl.   16.79750 +/- 0.10
P   1.08/394.32d           H 26.1   G  0.15   U  8.2  
q 0.95822044 +/- 0.000427    Q 1.14654843 +/- 0.00137
From 14 observations 2020 Oct. 17-19 (47.6 hr); mean residual 0".28
Residuals in arcseconds: 
201017 G96  .38+  .31-    201017 V06  .11+  .02-    201018 V06  .09-  .00     
201017 G96  .30+  .81-    201017 V06  .25-  .02-    201019 V06  .16+  .13+    
201017 G96  .34-  .55+    201017 V06  .14+  .18+    201019 V06  .02-  .26-    
201017 G96  .28-  .55+    201018 V06  .02-  .27-    201019 V06  .04-  .24+    
201017 V06  .03+  .06+    201018 V06  .13-  .03-    

Ephemerides (geocentric):
Date (UTC) HH   RA              Dec         delta   r     elong  mag " sig PA
---- -- -- --  -------------   -----------  ------ ------ -----  --- ---- ---
2020 10 19 14  01 09 08.764   +01 45 26.28  .07945 1.0740 169.0 21.4 .302 167
2020 10 19 15  01 08 44.413   +01 52 01.42  .07941 1.0739 169.0 21.4 .294 168
2020 10 19 16  01 08 20.034   +01 58 37.02  .07936 1.0739 168.9 21.4 .286 168
2020 10 19 17  01 07 55.628   +02 05 13.06  .07932 1.0738 168.9 21.4 .278 169
2020 10 19 18  01 07 31.196   +02 11 49.54  .07928 1.0738 168.9 21.4 .269 170
2020 10 19 19  01 07 06.737   +02 18 26.46  .07924 1.0737 168.9 21.4 .260 171
2020 10 19 20  01 06 42.252   +02 25 03.80  .07920 1.0736 168.8 21.4 .251 172
2020 10 19 21  01 06 17.741   +02 31 41.56  .07916 1.0736 168.8 21.4 .242 173
2020 10 19 22  01 05 53.203   +02 38 19.73  .07912 1.0735 168.8 21.4 .233 175
2020 10 19 23  01 05 28.640   +02 44 58.31  .07908 1.0735 168.7 21.4 .223 177
2020 10 20 00  01 05 04.052   +02 51 37.28  .07904 1.0734 168.7 21.4 .214 178
2020 10 20 01  01 04 39.438   +02 58 16.65  .07900 1.0733 168.6 21.4 .204   1
2020 10 20 02  01 04 14.799   +03 04 56.39  .07896 1.0733 168.6 21.4 .195   3
2020 10 20 03  01 03 50.134   +03 11 36.51  .07893 1.0732 168.5 21.4 .186   6
2020 10 20 04  01 03 25.446   +03 18 17.00  .07889 1.0732 168.5 21.4 .177   9
2020 10 20 05  01 03 00.732   +03 24 57.84  .07886 1.0731 168.4 21.4 .169  13
2020 10 20 06  01 02 35.995   +03 31 39.04  .07882 1.0730 168.4 21.4 .161  17
2020 10 20 07  01 02 11.233   +03 38 20.58  .07879 1.0730 168.3 21.4 .155  22
2020 10 20 08  01 01 46.447   +03 45 02.46  .07875 1.0729 168.3 21.4 .149  27
2020 10 20 09  01 01 21.638   +03 51 44.66  .07872 1.0729 168.2 21.4 .145  33
2020 10 20 10  01 00 56.805   +03 58 27.19  .07869 1.0728 168.1 21.4 .142  39
2020 10 20 11  01 00 31.949   +04 05 10.03  .07866 1.0727 168.1 21.4 .141  46
2020 10 20 12  01 00 07.070   +04 11 53.18  .07863 1.0727 168.0 21.4 .143  53
2020 10 20 13  00 59 42.168   +04 18 36.62  .07860 1.0726 167.9 21.4 .146  60
2020 10 20 14  00 59 17.243   +04 25 20.35  .07857 1.0726 167.9 21.4 .151  66
2020 10 20 15  00 58 52.296   +04 32 04.36  .07854 1.0725 167.8 21.4 .159  72
2020 10 20 16  00 58 27.326   +04 38 48.64  .07851 1.0724 167.7 21.4 .168  78
2020 10 20 17  00 58 02.335   +04 45 33.19  .07848 1.0724 167.6 21.4 .180  83
2020 10 20 18  00 57 37.322   +04 52 18.00  .07846 1.0723 167.6 21.4 .193  87
2020 10 20 19  00 57 12.288   +04 59 03.06  .07843 1.0723 167.5 21.5 .207  91
2020 10 20 20  00 56 47.232   +05 05 48.35  .07840 1.0722 167.4 21.5 .222  95
2020 10 20 21  00 56 22.155   +05 12 33.88  .07838 1.0721 167.3 21.5 .239  98
2020 10 20 22  00 55 57.057   +05 19 19.64  .07835 1.0721 167.2 21.5 .256 101
2020 10 20 23  00 55 31.938   +05 26 05.61  .07833 1.0720 167.1 21.5 .275 103
2020 10 21 00  00 55 06.800   +05 32 51.79  .07831 1.0720 167.1 21.5 .294 105
2020 10 21 01  00 54 41.640   +05 39 38.17  .07828 1.0719 167.0 21.5 .315 107
2020 10 21 02  00 54 16.461   +05 46 24.74  .07826 1.0718 166.9 21.5 .336 109
2020 10 21 03  00 53 51.262   +05 53 11.50  .07824 1.0718 166.8 21.5 .357 110
2020 10 21 04  00 53 26.044   +05 59 58.42  .07822 1.0717 166.7 21.5 .379 112
2020 10 21 05  00 53 00.806   +06 06 45.52  .07820 1.0717 166.6 21.5 .402 113
2020 10 21 06  00 52 35.550   +06 13 32.78  .07818 1.0716 166.5 21.5 .426 114
2020 10 21 07  00 52 10.274   +06 20 20.18  .07816 1.0715 166.4 21.5 .450 115
2020 10 21 08  00 51 44.980   +06 27 07.73  .07814 1.0715 166.3 21.5 .474 116
2020 10 21 09  00 51 19.667   +06 33 55.41  .07812 1.0714 166.2 21.5 .500 117
2020 10 21 10  00 50 54.337   +06 40 43.22  .07811 1.0714 166.1 21.5 .525 117
2020 10 21 11  00 50 28.988   +06 47 31.14  .07809 1.0713 166.0 21.5 .552 118
2020 10 21 12  00 50 03.622   +06 54 19.17  .07808 1.0712 165.9 21.5 .579 119
2020 10 21 13  00 49 38.238   +07 01 07.30  .07806 1.0712 165.8 21.5 .606 119